This is the latest recevied weather packets stored in our database for station/object W4SPD. If no packets are shown the sender has not sent any weather packets the latest 10 day(s).
| Time | Temp. | Humidity | Pressure | Rain* | Wind** | Luminosity | Snow |
|---|---|---|---|---|---|---|---|
| 1778187485 | 18.89° C | 80% | - | 0 mm | - | - | - |
| 1778187183 | 18.89° C | 81% | - | 0 mm | - | - | - |
| 1778186878 | 19.44° C | 82% | - | 0 mm | - | - | - |
| 1778186576 | 19.44° C | 81% | - | 0 mm | - | - | - |
| 1778186274 | 19.44° C | 82% | - | 0 mm | - | - | - |
| 1778185971 | 18.89° C | 79% | - | 0 mm | - | - | - |
| 1778185667 | 19.44° C | 78% | - | 0 mm | - | - | - |
| 1778185363 | 18.89° C | 83% | - | 0 mm | - | - | - |
| 1778185058 | 18.33° C | 84% | - | 0 mm | - | - | - |
| 1778184755 | 18.33° C | 82% | - | 0 mm | - | - | - |
| 1778184451 | 18.33° C | 83% | - | 0 mm | - | - | - |
| 1778184148 | 18.89° C | 81% | - | 0 mm | - | - | - |
| 1778183844 | 19.44° C | 81% | - | 0 mm | - | - | - |
| 1778183542 | 19.44° C | 80% | - | 0 mm | - | - | - |
| 1778183238 | 18.89° C | 83% | - | 0 mm | - | - | - |
| 1778182935 | 18.33° C | 83% | - | 0 mm | - | - | - |
| 1778182632 | 18.33° C | 85% | - | 0 mm | - | - | - |
| 1778182328 | 18.33° C | 83% | - | 0 mm | - | - | - |
| 1778182024 | 18.33° C | 83% | - | 0 mm | - | - | - |
| 1778181721 | 18.33° C | 84% | - | 0 mm | - | - | - |
| 1778181417 | 18.33° C | 85% | - | 0 mm | - | - | - |
| 1778181114 | 18.89° C | 84% | - | 0 mm | - | - | - |
| 1778180811 | 18.89° C | 85% | - | 0 mm | - | - | - |
| 1778180510 | 18.33° C | 86% | - | 0 mm | - | - | - |
| 1778180208 | 19.44° C | 83% | - | 0 mm | - | - | - |
* Rain latest hour (hover to see other rain measurements)
** Current wind speed in m/s (hover to see current wind gust speed)